Dewpoint
41 41 37 40 42 40 38 34 34 42 42 45 41 40 40 45 54 54 54 53 53 54 55 54 56 57 58 59 59 59 59 59 57 55 53 52 47 41 38 37 37 37 36 37
36 35 38 41 41 41 39 36 34 43 42 45 43 40 40 41 48 51 55 55 54 53 51 50 49 50 51 51 55 57 58 58 58 58 53 47 39 35 33 33 33 34 35 34
34 36 38 38 38 37 37 35 35 35 44 44 44 43 43 44 44 42 53 56 56 53 49 46 44 43 44 44 49 51 53 53 53 49 43 38 35 32 30 30 32 33 33 33
32 36 36 39 35 36 34 39 37 39 41 37 42 35 42 42 42 42 50 55 55 51 46 44 42 41 40 40 44 45 47 48 50 48 44 42 37 30 30 32 33 33 34 31
28 35 38 36 37 37 35 38 37 37 40 41 41 37 40 44 42 42 52 53 50 48 47 44 41 40 41 44 44 45 46 44 42 41 38 36 34 35 35 35 35 35 36 36
33 37 40 39 39 38 38 36 36 40 40 34 38 38 36 41 42 42 50 48 47 46 44 41 41 42 42 43 44 44 43 43 42 39 39 37 36 38 39 39 38 38 37 37
28 34 40 40 38 39 36 34 30 28 29 30 39 38 38 40 42 42 48 46 45 44 42 42 42 42 42 42 42 42 41 40 40 41 41 41 42 42 40 39 37 36 34 33
21 20 37 40 36 35 35 34 29 22 27 30 38 34 38 41 45 44 48 43 40 40 40 40 40 41 41 39 40 41 41 41 41 41 41 41 40 39 37 36 36 32 28 27
22 24 39 39 41 37 34 33 35 30 31 31 33 35 36 41 40 42 39 39 37 36 36 36 38 39 40 41 42 42 41 40 39 39 38 37 37 36 33 30 26 25 25 25
31 24 33 38 41 40 37 38 31 32 25 24 31 33 34 36 37 38 37 37 36 35 36 37 39 40 41 40 40 40 39 38 37 35 34 32 29 25 23 24 24 24 25 26
33 33 28 35 34 34 34 35 35 34 32 26 27 31 25 37 38 37 36 35 35 36 37 39 40 40 39 38 37 35 32 30 28 26 25 23 23 23 23 22 23 24 24 25
35 33 29 32 36 37 37 36 35 29 29 31 29 30 28 35 40 38 36 34 35 36 37 39 39 38 37 35 32 31 30 27 25 23 22 21 21 21 21 21 21 22 22 24
34 31 26 28 32 34 34 36 36 32 31 27 28 29 34 35 38 37 34 35 36 37 38 38 37 36 33 28 28 27 24 22 22 21 20 20 19 19 19 20 21 21 21 22
39 33 30 23 27 31 31 34 35 35 28 28 28 25 29 34 34 33 34 35 36 36 36 37 37 35 30 25 24 22 22 21 20 20 19 19 19 19 19 19 19 20 19 19
36 29 32 33 33 30 30 31 33 32 31 27 28 25 26 33 35 33 34 36 37 37 37 37 37 34 27 22 21 20 20 20 19 19 19 19 19 19 19 19 19 19 18 18
35 28 31 28 29 27 29 31 31 33 33 32 31 30 32 33 35 34 35 36 36 36 37 37 36 31 24 22 20 19 19 20 19 18 18 19 19 18 19 18 18 18 18 17
33 29 20 20 23 24 19 25 31 31 33 32 30 30 30 33 35 35 36 36 36 36 36 37 34 28 26 22 19 18 19 19 18 19 19 18 18 17 17 17 16 15 15 15
30 30 29 17 18 11 22 24 30 31 32 33 33 34 32 31 33 37 37 37 37 37 37 38 35 28 25 22 20 19 19 19 19 18 18 18 17 16 15 15 14 13 13 13
35 31 17 21 20 18 19 22 29 29 27 32 33 34 34 34 34 33 39 38 38 38 38 39 34 29 24 21 19 19 18 18 17 17 17 17 16 15 15 14 13 12 12 12
32 34 22 21 17 8 19 24 29 29 19 23 30 34 33 31 29 31 36 39 38 39 39 36 28 25 22 20 19 17 17 17 15 15 15 16 17 16 15 14 13 13 12 10
26 28 21 12 12 15 21 22 26 15 17 21 22 26 32 30 31 31 35 37 37 36 34 26 23 23 22 20 19 17 17 15 15 16 16 17 17 16 14 13 13 13 11 13
20 17 14 16 5 9 24 26 23 23 22 21 22 24 30 30 30 31 33 33 32 30 27 24 23 21 21 20 18 19 17 17 17 17 16 17 17 15 14 14 15 14 13 13
17 24 19 20 21 24 24 25 28 25 22 24 26 26 27 28 28 28 29 28 27 24 23 23 22 22 22 23 22 21 21 18 17 17 16 16 15 17 16 14 14 13 13 13
17 21 22 22 24 25 26 27 24 26 26 27 26 25 26 26 28 28 26 24 23 22 21 21 21 21 21 21 22 24 21 18 17 16 15 13 12 12 12 15 15 12 10 11
16 19 16 19 24 24 24 22 25 25 25 24 25 26 25 26 27 27 25 23 21 20 19 20 21 22 21 22 23 22 18 15 15 14 12 12 11 10 10 12 11 13 12 12
17 15 19 20 19 22 21 15 22 20 21 22 24 23 26 27 27 25 23 22 20 17 16 17 16 22 20 20 18 16 13 14 12 10 10 9 10 7 8 8 8 13 15 14
Lifted_Index
1 1 1 1 2 3 2 1 1 1 1 1 1 1 1 0 -1 -1 -1 -0 0 1 1 1 1 1 1 1 0 0 0 0 0 1 1 2 2 2 3 3 3 3 4 4
1 0 1 2 2 3 2 2 2 2 1 1 1 1 1 0 -0 -1 -1 -1 0 0 1 1 1 1 0 0 0 0 0 0 0 1 1 2 2 2 2 3 3 4 5 6
0 1 1 1 2 3 3 3 3 2 1 1 1 1 1 1 0 -0 -1 -1 -1 -0 -0 0 0 -0 -0 -0 -1 -1 -0 -0 -0 0 1 1 2 2 2 2 3 6 8 10
1 1 1 1 2 3 3 3 3 3 2 1 1 1 1 1 1 0 -0 -1 -1 -1 -1 -1 -0 -1 -1 -1 -1 -1 -1 -1 -1 -0 0 1 1 2 2 4 6 9 11 12
1 1 1 1 2 3 3 3 3 3 2 1 1 1 1 1 1 1 -0 -1 -1 -2 -1 -1 -1 -1 -1 -1 -1 -1 -1 -1 -1 -1 -0 0 1 2 4 6 9 11 11 11
1 1 0 0 1 2 2 2 2 2 1 1 1 1 1 1 1 1 0 -0 -1 -1 -2 -1 -1 -1 -1 -1 -1 -1 -1 -1 -1 -0 0 1 2 4 6 8 10 10 10 10
2 1 1 0 1 1 2 1 1 1 1 1 1 1 1 2 1 1 1 0 -0 -1 -1 -1 -1 -1 -1 -1 -0 -0 -0 -0 0 1 2 4 5 7 8 9 9 10 10 10
1 1 1 0 0 0 1 1 1 1 1 1 1 1 1 2 2 1 1 1 0 -0 -1 -1 -1 -1 -1 -0 0 1 0 1 2 3 5 7 8 8 9 9 10 11 13 13
1 1 1 0 0 0 1 1 2 2 1 1 1 1 1 2 2 2 2 1 1 0 -0 -1 -1 -1 -1 -0 1 1 2 3 4 6 7 8 8 9 9 10 12 14 16 17
2 2 1 1 1 1 2 2 3 2 1 1 1 1 1 1 1 1 1 2 1 1 0 -0 0 0 1 1 2 3 4 5 6 7 8 8 9 10 11 13 15 17 18 18
2 2 2 1 2 2 2 3 3 2 2 1 1 1 2 2 1 1 1 1 1 1 1 1 1 2 2 3 3 5 6 7 7 8 8 9 11 13 14 16 17 18 18 18
2 2 2 2 2 3 3 3 2 2 2 2 2 2 2 2 2 1 1 1 1 1 2 2 3 3 4 4 5 6 7 7 8 8 9 11 14 15 17 18 18 18 18 19
1 1 1 1 2 3 3 2 2 2 2 2 2 2 3 3 2 2 1 1 1 1 2 3 4 4 5 5 6 7 7 7 8 10 11 14 16 17 17 18 18 18 18 19
1 1 1 1 2 2 2 2 2 1 2 2 2 2 3 3 3 2 2 2 2 2 3 3 4 4 5 6 7 7 7 8 9 11 13 15 17 17 18 18 18 18 18 18
1 1 1 1 2 2 2 2 2 1 1 2 2 2 2 3 3 3 3 3 3 3 3 4 4 5 5 6 7 7 8 9 11 13 15 16 17 18 18 18 18 18 17 17
2 2 1 1 2 2 2 2 2 2 2 2 2 2 2 3 3 4 4 4 4 4 4 4 4 5 6 6 7 7 8 10 12 14 15 16 17 17 17 17 17 16 16 16
2 2 2 1 1 2 2 2 3 3 3 3 3 3 3 4 4 5 5 5 5 5 5 5 5 5 6 6 7 7 8 10 12 14 16 16 17 17 16 16 15 15 15 15
3 2 2 2 1 1 2 3 3 4 4 4 4 4 4 5 5 5 5 5 5 5 5 5 5 6 6 6 7 7 8 10 13 14 15 16 16 15 15 15 14 15 15 15
3 3 2 2 2 1 2 3 3 4 4 5 5 5 5 5 5 5 5 5 5 6 6 6 6 6 6 6 7 7 8 10 12 14 15 15 15 14 13 14 14 15 15 15
4 3 3 3 2 2 2 2 3 3 4 4 5 5 4 4 4 5 5 5 6 6 6 6 6 7 6 6 6 7 8 9 11 13 14 14 13 12 13 14 14 15 15 15
3 3 3 3 3 2 2 3 3 3 3 4 5 5 4 4 5 5 5 5 5 5 6 6 6 6 6 6 6 6 7 8 11 12 13 12 11 12 13 14 15 15 15 15
3 3 3 3 3 3 3 3 3 3 4 4 5 5 5 5 5 5 6 6 5 5 6 6 6 6 7 6 6 5 6 8 10 12 12 11 11 13 14 15 15 15 15 15
4 4 4 4 3 3 3 4 4 4 4 5 5 5 5 5 6 6 6 6 6 6 6 6 6 6 6 6 5 5 6 7 9 11 11 12 13 14 15 15 15 15 15 14
5 5 5 4 4 4 4 4 4 5 5 5 5 6 6 6 6 6 6 6 6 6 6 6 6 5 5 5 5 5 6 8 10 11 11 12 14 14 15 15 15 15 15 15
6 6 6 5 5 5 5 5 5 5 6 6 6 6 6 7 7 7 6 6 6 6 6 6 5 5 4 5 5 6 8 10 10 11 12 13 14 14 14 14 15 15 15 16
6 6 6 6 6 6 5 6 6 6 6 6 6 6 7 7 7 7 6 6 6 6 6 6 5 4 4 4 5 6 9 11 11 11 13 14 14 14 14 14 14 15 16 17